Flag for Germany Weather past 2 weeks in Wiehl, North Rhine-Westphalia, Germany

Now
59 °F

Scattered clouds.


Feels Like: 60 °F
Forecast: 48 / 78 °F
Wind: 3 mph from Southwest

Location: Koeln / Bonn

Current Time: Aug 28, 2015 at 10:22:34 AM

Latest Report: Aug 28, 2015 at 9:50 AM


Visibility: N/A

Pressure: 30.04 "Hg

Humidity: 88%

Dew point: 55 °F

Location of WiehlLocation

Historic Weather in Wiehl — Graph

°F

Wiehl temperature yesterday

Maximum temperature yesterday: 73 °F (at 1:50 AM)
Minimum temperature yesterday: 55 °F (at 9:20 PM)
Average temperature yesterday: 64 °F

Past Weeks' High & Low Weather Summary

 TemperatureHumidityPressure
High90 °F (Aug 13, 3:20 PM)94% (Aug 15, 10:50 PM)30.27 "Hg (Aug 15, 10:50 PM)
Low46 °F (Aug 19, 6:50 AM)26% (Aug 23, 3:20 PM)29.56 "Hg (Aug 24, 2:20 PM)
Average65 °F69%29.94 "Hg
* Reported Aug 13 9:20 AM — Aug 28 9:20 AM, Wiehl, Weather by CustomWeather, © 2015

Note: Actual official high and low records may vary slightly from our data, if they occured in-between our weather recording intervals... More about our weather records

Advertising

Wiehl weather history for previous 24 hours

 ConditionsComfort  
Time TempWeatherWind HumidityBarometerVisibility
9:20 AM
Fri, Aug 28
59 °FScattered clouds.2 mph88%30.04 "HgN/A
8:50 AM57 °FScattered clouds.3 mph94%30.04 "HgN/A
8:20 AM57 °FPartly sunny.3 mph94%30.01 "HgN/A
7:50 AM55 °FPartly sunny.2 mph94%30.01 "Hg5 mi
7:20 AM55 °FPassing clouds.3 mph94%30.01 "Hg5 mi
6:50 AM55 °FPassing clouds.5 mph94%30.01 "Hg5 mi
6:20 AM55 °FPassing clouds.2 mph94%29.98 "Hg6 mi
5:50 AM55 °FPassing clouds.3 mph94%29.98 "HgN/A
5:20 AM55 °FPassing clouds.3 mph94%29.98 "HgN/A
4:50 AM55 °FPassing clouds.2 mph94%29.98 "HgN/A
4:20 AM55 °FPartly cloudy.3 mph94%29.95 "HgN/A
3:50 AM55 °FLight rain. Mostly cloudy.3 mph94%29.95 "HgN/A
3:20 AM55 °FPassing clouds.2 mph94%29.95 "HgN/A
2:50 AM55 °FPartly cloudy.3 mph94%29.95 "HgN/A
2:20 AM55 °FPartly cloudy.3 mph94%29.95 "HgN/A
1:50 AM55 °FPartly cloudy.2 mph94%29.95 "HgN/A
1:20 AM55 °FLight rain. Passing clouds.1 mph94%29.95 "HgN/A
12:50 AM55 °FRain. Partly cloudy.1 mph94%29.95 "HgN/A
12:20 AM55 °FRain. Partly cloudy.2 mph94%29.92 "HgN/A
11:50 PM
Thu, Aug 27
55 °FLight rain. Partly cloudy.3 mph94%29.92 "HgN/A
11:20 PM55 °FRain. Mostly cloudy.6 mph94%29.92 "HgN/A
10:50 PM55 °FRain. Partly cloudy.5 mph94%29.92 "HgN/A
10:20 PM55 °FRain. Partly cloudy.5 mph94%29.92 "HgN/A
9:50 PM55 °FRain. Mostly cloudy.6 mph94%29.89 "Hg6 mi
9:20 PM55 °FLight rain. Broken clouds.5 mph94%29.89 "Hg4 mi
8:50 PM57 °FRain. Broken clouds.2 mph88%29.89 "Hg4 mi
8:20 PM57 °FRain. Broken clouds.3 mph88%29.89 "Hg4 mi
7:50 PM57 °FRain. Broken clouds.2 mph88%29.89 "Hg4 mi
7:20 PM57 °FRain. More clouds than sun.3 mph88%29.86 "Hg4 mi
6:50 PM57 °FRain. Low clouds.5 mph88%29.89 "Hg6 mi
6:20 PM57 °FRain. More clouds than sun.6 mph88%29.89 "HgN/A
5:50 PM57 °FLight rain. More clouds than sun.8 mph94%29.89 "HgN/A
5:20 PM57 °FLight rain. More clouds than sun.12 mph94%29.89 "HgN/A
4:50 PM59 °FLight rain. More clouds than sun.5 mph94%29.86 "HgN/A
4:20 PM59 °FLight rain. More clouds than sun.7 mph88%29.86 "HgN/A
3:50 PM59 °FLight rain. More clouds than sun.3 mph88%29.86 "HgN/A
3:20 PM61 °FLight rain. Mostly cloudy.6 mph88%29.86 "HgN/A
2:50 PM61 °FLight rain. More clouds than sun.6 mph83%29.89 "HgN/A
2:20 PM61 °FLight rain. Partly sunny.9 mph83%29.89 "HgN/A
1:50 PM63 °FDrizzle. Partly sunny.9 mph83%29.89 "HgN/A
1:20 PM64 °FLight rain. Partly sunny.9 mph83%29.89 "HgN/A
12:50 PM64 °FLight rain. Partly sunny.6 mph83%29.89 "HgN/A
12:20 PM63 °FPartly sunny.6 mph88%29.89 "HgN/A
11:50 AM64 °FPartly sunny.7 mph83%29.89 "HgN/A
11:20 AM63 °FLight rain. Broken clouds.8 mph88%29.86 "HgN/A
10:50 AM63 °FLight rain. Broken clouds.6 mph83%29.89 "HgN/A
10:20 AM63 °FLight rain. Broken clouds.12 mph83%29.89 "HgN/A
Weather by CustomWeather, © 2015

See weather overviewHow to use our weather pages